sat.trackr.live / text

‹ back to catalog

STARLINK-32949

NORAD 63145 · 2025-043P

PAYLOAD ACTIVE UNKNOWN

§ Identity

Operator
Country
US
Launch date
2025-03-03
Launch site
AFETR
Launch vehicle
Mass (kg)
RCS (m²)

Purposes: comms

External: N2YO · Heavens-Above · Gunter

§ Orbital elements

Epoch: 2026-05-25T03:44:31.975296Z

Period
94.27 min
Inclination
43.0012°
Eccentricity
0.0000941
Mean motion
15.27586064 rev/d
Perigee alt
482.4 km
Apogee alt
483.7 km
Semi-major
6,861.2 km
B*
4.9288e-4
RAAN
304.6655°
Arg perigee
280.8203°
Mean anomaly
79.2543°
Rev number
6,962

§ Raw data

STARLINK-329491 63145U 25043P   26145.15592564  .00013328  00000+0  49288-3 0  99982 63145  43.0012 304.6655 0000941 280.8203  79.2543 15.27586064 69624

JSON: /api/v1/satellites/63145 · /tle

For live sub-satellite position, see the globe view (requires WebGL).

§ Visibility from observer

Set your observer location to see the next 7 days of passes ≥ 10°. The values pass through the URL so the page stays shareable.

No JS? Fill the form by hand. The geolocation button needs JavaScript.